Waarnemingen

Advertentie
Mijn weer
Cabo Busto, Spanje (8010): temperatuur & dauwpunt: 16.07.2019 18:00:00 - 22.07.2019 18:00:00 (CEST)Cabo Busto, Spanje (8010): windsnelheid & windstoten: 16.07.2019 18:00:00 - 22.07.2019 18:00:00 (CEST)Cabo Busto, Spanje (8010): windrichting: 16.07.2019 18:00:00 - 22.07.2019 18:00:00 (CEST)Cabo Busto, Spanje (8010): luchtdruk: 16.07.2019 18:00:00 - 22.07.2019 18:00:00 (CEST)Cabo Busto, Spanje (8010): zicht: 16.07.2019 18:00:00 - 22.07.2019 18:00:00 (CEST)Cabo Busto, Spanje (8010): Zonneschijnduur: 16.07.2019 18:00:00 - 22.07.2019 18:00:00 (CEST)Cabo Busto, Spanje (8010): neerslag: 16.07.2019 18:00:00 - 22.07.2019 18:00:00 (CEST)
Datum & Tijd tt [°C] td [°C] ff [km/u] ff [kn] fx [km/u] fx [kn] dd ppp [hPa] vv [km] sd [min] rr [mm]
22.07.2019 18:00:00 - - - - - - - - - - -
22.07.2019 17:00:00 21,0 18,0 18 10 35 19 ONO 1017,9 18 60 0,0
22.07.2019 16:00:00 21,2 18,2 19 10 39 21 NO 1018,3 20 60 0,0
22.07.2019 15:00:00 21,4 18,2 22 12 39 21 NO 1018,7 20 41 0,0
22.07.2019 14:00:00 21,1 18,1 22 12 34 18 NO 1019,0 20 29 -
22.07.2019 13:00:00 21,0 18,2 16 8 31 17 ONO 1019,5 18 43 0,0
22.07.2019 12:00:00 20,4 18,0 19 10 36 19 O 1019,9 20 43 0,0
22.07.2019 11:00:00 20,3 17,9 15 8 31 17 O 1020,0 20 3 0,0
22.07.2019 10:00:00 19,4 17,4 18 10 30 16 O 1020,1 20 0 0,0
22.07.2019 09:00:00 19,2 17,4 16 8 33 18 O 1020,1 16 0 0,0
22.07.2019 08:00:00 19,1 17,5 17 9 30 16 O 1020,1 20 0 -
22.07.2019 07:00:00 19,0 17,5 17 9 31 17 O 1020,3 16 0 0,0
22.07.2019 06:00:00 18,9 17,2 17 9 32 18 O 1020,5 13 0 0,0
22.07.2019 05:00:00 19,5 17,9 22 12 35 19 O 1020,6 18 0 0,0
22.07.2019 04:00:00 19,4 17,7 17 9 31 17 O 1020,9 20 0 0,0
22.07.2019 03:00:00 19,3 17,5 17 9 26 14 O 1021,2 15 0 0,0
22.07.2019 02:00:00 19,2 17,4 14 7 26 14 O 1021,7 17 0 -
22.07.2019 01:00:00 19,3 17,3 15 8 31 17 O 1022,2 20 0 0,0
22.07.2019 00:00:00 19,5 17,5 19 11 34 18 NO 1022,5 20 0 0,0
21.07.2019 23:00:00 19,9 18,0 18 10 37 20 NO 1022,5 14 0 0,0
21.07.2019 22:00:00 20,1 18,1 18 10 34 18 O 1022,2 20 1 0,0
21.07.2019 21:00:00 20,2 17,9 19 10 29 16 O 1021,9 20 6 0,0
21.07.2019 20:00:00 20,1 17,5 16 9 35 19 ONO 1021,6 20 42 -
21.07.2019 19:00:00 21,0 17,8 27 14 37 20 NO 1021,4 20 60 0,0
21.07.2019 18:00:00 21,3 17,7 22 12 31 17 NO 1021,6 20 60 0,0
21.07.2019 17:00:00 21,1 18,1 17 9 26 14 O 1022,2 20 23 0,0
21.07.2019 16:00:00 20,5 17,9 14 8 25 13 ONO 1022,2 20 6 0,0
21.07.2019 15:00:00 20,2 17,9 17 9 29 16 ONO 1021,9 20 13 0,0
21.07.2019 14:00:00 19,7 17,6 19 10 34 18 NO 1021,6 20 30 -
21.07.2019 13:00:00 19,7 18,0 7 4 16 8 ONO 1021,9 19 2 0,0
21.07.2019 12:00:00 18,8 17,1 13 7 19 11 ONO 1022,0 0,2 0 0,2
21.07.2019 11:00:00 18,7 17,1 11 6 20 11 O 1022,1 2,9 0 0,4
21.07.2019 10:00:00 18,6 16,6 11 6 19 10 O 1021,9 2,4 0 0,2
21.07.2019 09:00:00 18,7 16,5 5 3 9 5 ZZO 1021,4 2,0 0 0,6
21.07.2019 08:00:00 18,6 16,2 3 2 10 5 Z 1021,0 3,2 0 -
21.07.2019 07:00:00 18,7 16,0 3 2 5 3 W 1020,6 6 0 0,0
21.07.2019 06:00:00 18,7 16,0 4 2 7 4 O 1020,3 20 0 0,0
21.07.2019 05:00:00 18,7 16,0 4 2 11 6 ONO 1020,3 18 0 0,0
21.07.2019 04:00:00 18,8 16,0 5 3 9 5 ONO 1020,6 18 0 0,0
21.07.2019 03:00:00 18,7 16,0 7 4 9 5 ZZO 1020,5 20 0 0,0
21.07.2019 02:00:00 19,0 16,2 2 1 11 6 Z 1021,0 20 0 -
21.07.2019 01:00:00 19,2 16,0 5 3 7 4 O 1021,1 18 0 0,0
21.07.2019 00:00:00 19,5 16,1 3 1 6 4 W 1021,1 20 0 0,0
20.07.2019 23:00:00 19,4 16,2 5 3 11 6 WZW 1021,1 20 0 0,0
20.07.2019 22:00:00 19,4 16,2 10 5 15 8 W 1020,5 19 0 0,0
20.07.2019 21:00:00 19,7 16,6 7 4 15 8 W 1020,2 19 0 0,0
20.07.2019 20:00:00 20,2 16,6 10 5 18 10 W 1019,7 13 0 -
20.07.2019 19:00:00 21,3 17,1 9 5 14 8 W 1019,2 19 0 0,0
20.07.2019 18:00:00 21,8 17,6 10 5 17 9 W 1018,9 12 0 0,0
20.07.2019 17:00:00 21,8 17,4 12 7 16 9 W 1018,6 16 0 0,0
20.07.2019 16:00:00 23,1 17,8 8 4 11 6 W 1018,4 16 0 0,0
20.07.2019 15:00:00 23,6 17,6 7 4 15 8 W 1018,1 10 39 0,0
20.07.2019 14:00:00 23,2 17,5 6 3 13 7 NNW 1017,6 20 60 -
20.07.2019 13:00:00 23,2 16,7 6 3 14 8 NNO 1017,0 20 59 0,0
20.07.2019 12:00:00 22,9 16,0 10 5 14 8 NW 1016,4 20 60 0,0
20.07.2019 11:00:00 22,0 16,7 7 4 13 7 W 1016,1 20 60 0,0
20.07.2019 10:00:00 20,1 16,6 10 5 15 8 WZW 1016,0 20 5 0,0
20.07.2019 09:00:00 19,3 16,6 9 5 18 10 Z 1015,6 20 52 0,0
20.07.2019 08:00:00 17,0 14,8 13 7 17 9 ZZO 1015,3 20 0 -
20.07.2019 07:00:00 17,3 14,9 9 5 12 7 Z 1015,0 20 0 0,0
20.07.2019 06:00:00 18,0 15,4 7 4 13 7 ZZW 1014,8 14 0 0,0
20.07.2019 05:00:00 16,9 14,5 7 4 13 7 ZZW 1014,8 19 0 0,0
20.07.2019 04:00:00 18,2 15,4 8 4 14 7 WZW 1014,4 19 0 0,0
20.07.2019 03:00:00 17,9 15,3 8 4 14 8 ZZW 1014,5 20 0 0,0
20.07.2019 02:00:00 18,1 15,3 9 5 15 8 Z 1014,3 20 0 -
20.07.2019 01:00:00 18,4 15,4 8 4 13 7 ZZW 1014,5 20 0 0,0
20.07.2019 00:00:00 19,4 16,5 10 5 12 6 W 1014,6 20 0 0,0
19.07.2019 23:00:00 19,5 16,3 5 3 14 8 ZW 1014,4 20 0 0,0
19.07.2019 22:00:00 20,2 16,6 9 5 13 7 W 1014,5 20 14 0,0
19.07.2019 21:00:00 22,2 17,4 6 4 11 6 WNW 1014,2 20 60 0,0
19.07.2019 20:00:00 21,8 17,1 3 2 14 7 NO 1013,9 20 60 -
19.07.2019 19:00:00 22,0 17,4 5 3 11 6 NNO 1013,9 20 60 0,0
19.07.2019 18:00:00 22,4 17,1 6 3 12 6 NNO 1014,1 20 60 0,0
19.07.2019 17:00:00 22,8 17,1 6 3 12 7 NNO 1014,3 20 60 0,0
19.07.2019 16:00:00 22,4 16,9 6 3 11 6 NO 1014,6 18 60 0,0
19.07.2019 15:00:00 22,7 16,7 8 5 14 8 WNW 1015,2 13 60 0,0
19.07.2019 14:00:00 21,8 16,0 8 4 12 6 WNW 1015,3 20 60 -
19.07.2019 13:00:00 21,4 16,4 6 3 10 5 WNW 1015,5 19 60 0,0
19.07.2019 12:00:00 21,3 16,0 3 2 5 3 WNW 1015,6 9 60 0,0
19.07.2019 11:00:00 20,9 15,9 3 1 6 4 NW 1015,7 12 60 0,0
19.07.2019 10:00:00 20,3 15,5 4 2 8 5 NW 1015,9 20 60 0,0
19.07.2019 09:00:00 19,0 15,3 5 3 11 6 O 1015,8 20 60 0,0
19.07.2019 08:00:00 17,3 14,4 5 3 - - ZW 1016,1 20 - -
19.07.2019 07:00:00 17,2 14,3 13 7 18 10 ZZO 1016,1 20 0 0,0
19.07.2019 06:00:00 17,5 14,4 12 6 17 9 ZZO 1016,0 20 0 0,0
19.07.2019 05:00:00 18,1 15,0 9 5 15 8 ZO 1016,6 20 0 0,0
19.07.2019 04:00:00 18,1 15,0 11 6 16 9 ZZO 1017,2 20 0 0,0
19.07.2019 03:00:00 18,4 15,4 6 3 9 5 ZO 1017,8 20 0 0,0
19.07.2019 02:00:00 18,6 15,3 6 3 9 5 ZO 1018,3 20 0 -
19.07.2019 01:00:00 18,5 15,3 5 3 9 5 OZO 1018,5 20 0 0,0
19.07.2019 00:00:00 17,9 14,8 3 2 8 4 ZO 1018,7 20 0 0,0
18.07.2019 23:00:00 19,3 15,5 4 2 4 2 ZO 1018,6 20 0 0,0
18.07.2019 22:00:00 19,8 15,3 0 0 8 4 N 1018,4 20 26 0,0
18.07.2019 21:00:00 21,0 15,5 6 4 12 7 W 1018,4 20 60 0,0
18.07.2019 20:00:00 21,0 15,3 6 3 11 6 WNW 1018,4 20 60 -
18.07.2019 19:00:00 21,1 15,2 5 3 12 6 NNO 1018,3 20 60 0,0
18.07.2019 18:00:00 21,6 15,0 3 2 8 4 NO 1018,6 20 60 0,0
18.07.2019 17:00:00 21,2 - 5 3 8 5 NO - 20 60 0,0
18.07.2019 16:00:00 21,0 14,4 5 3 12 7 NNO 1019,0 20 60 0,0
18.07.2019 15:00:00 20,6 14,2 6 3 12 6 NNW 1019,2 20 60 0,0
18.07.2019 14:00:00 20,9 14,8 5 3 10 6 NNO 1019,3 20 60 -
18.07.2019 13:00:00 20,5 - 5 3 11 6 NW - 20 60 0,0
18.07.2019 12:00:00 20,7 14,8 5 3 10 5 W 1019,2 20 60 0,0
18.07.2019 11:00:00 19,4 14,2 7 4 14 7 WNW 1019,3 20 60 0,0
18.07.2019 10:00:00 18,2 14,7 9 5 15 8 W 1019,5 20 27 0,0
18.07.2019 09:00:00 17,4 - 9 5 16 9 WZW - 20 38 0,0
18.07.2019 08:00:00 16,4 - 11 6 18 10 WZW - 20 0 -
18.07.2019 07:00:00 15,2 - 8 4 13 7 W - 20 0 0,0
18.07.2019 06:00:00 15,7 - 10 5 13 7 Z - 15 0 0,0
18.07.2019 05:00:00 16,5 14,3 9 5 - - ZW 1018,8 20 - -
18.07.2019 04:00:00 17,1 14,3 8 4 10 5 ZZW 1019,3 20 0 0,0
18.07.2019 03:00:00 17,6 15,1 8 4 11 6 ZW 1019,9 20 0 0,0
18.07.2019 02:00:00 17,2 - 6 3 10 5 ZZW - 20 0 -
18.07.2019 01:00:00 17,0 - 3 2 14 8 ZW - 20 0 0,0
18.07.2019 00:00:00 17,3 - 11 6 13 7 ZZO - 20 0 0,0
17.07.2019 23:00:00 17,9 - 4 2 9 5 Z - 20 0 0,0
17.07.2019 22:00:00 18,4 - 1 1 11 6 ZZO - 20 0 0,0
17.07.2019 21:00:00 18,7 - 6 3 9 5 O - 20 0 0,0
17.07.2019 20:00:00 19,2 - 6 3 9 5 N - 18 0 -
17.07.2019 19:00:00 20,1 - 3 2 6 3 NW - 11 0 0,0
17.07.2019 18:00:00 20,4 - 5 3 7 4 W - 20 0 0,0
17.07.2019 17:00:00 20,4 - 4 2 8 4 W - 8 0 0,0
17.07.2019 16:00:00 20,0 16,2 4 2 6 3 WNW 1019,5 11 0 0,0
17.07.2019 15:00:00 20,0 - 3 2 6 3 WNW - 6 0 0,0
17.07.2019 14:00:00 19,8 17,2 3 2 5 3 W 1019,1 8 0 -
17.07.2019 13:00:00 19,0 16,6 2 1 4 2 WNW 1019,2 2,8 0 0,0
17.07.2019 12:00:00 18,4 - 3 2 8 4 O - 20 0 0,0
17.07.2019 11:00:00 18,0 - 3 2 10 5 ZZO - 20 0 0,0
17.07.2019 10:00:00 18,0 16,0 8 4 - - OZO 1018,4 14 - -
17.07.2019 09:00:00 17,6 15,8 7 4 18 10 O 1018,3 11 0 0,0
17.07.2019 08:00:00 17,6 15,8 8 4 16 9 O 1017,8 2,7 0 -
17.07.2019 07:00:00 17,8 - 12 6 27 15 O - 3,8 0 0,2
17.07.2019 06:00:00 18,3 - 14 8 23 13 O - 7 0 0,0
17.07.2019 05:00:00 18,6 - 12 7 24 13 NO - 20 0 0,0
17.07.2019 04:00:00 18,7 - 8 4 17 9 O - 16 0 0,0
17.07.2019 03:00:00 19,1 16,0 7 4 18 10 O 1017,8 20 0 0,0
17.07.2019 02:00:00 19,3 16,3 10 5 16 9 O 1018,0 20 0 -
17.07.2019 01:00:00 19,1 - 7 4 12 6 O - 20 0 0,0
17.07.2019 00:00:00 19,0 - 8 4 14 8 O - 20 0 0,0
16.07.2019 23:00:00 19,2 - 9 5 14 8 O - 20 0 0,0
16.07.2019 22:00:00 19,3 - 6 4 16 9 O - 20 0 0,0
16.07.2019 21:00:00 19,4 - 8 5 22 12 ONO - 20 0 0,0
16.07.2019 20:00:00 19,7 15,8 14 8 21 12 ONO 1017,7 20 0 -
16.07.2019 19:00:00 19,9 - 13 7 21 11 O - 20 0 0,0
16.07.2019 18:00:00 20,5 - 10 6 23 12 ONO - 20 18 0,0

tt = temperatuur
td = dauwpunt
ff = windsnelheid
fx = windstoten
dd = windrichting
ppp = luchtdruk
vv = zicht
sd = Zonneschijnduur
rr = neerslag

Weerstations in de omgeving